Home   Weather   Zürich   Past weeks

Flag for Switzerland Past Weather in Zürich, Zurich, Switzerland — Yesterday and Last 2 Weeks

Now
31 °F

Chilly.


Feels Like: 24 °F
Forecast: 19 / 36 °F
Wind: 7 mph from Northeast

Location: Zuerich-Fluntern

Current Time: Dec 4, 2016 at 9:25:04 pm

Latest Report: Dec 4, 2016 at 8:00 pm


Visibility: N/A

Pressure: 30.36 "Hg

Humidity: 91%

Dew Point: 28 °F

Location of ZürichLocation

Past Weather in Zürich — Graph

°F

Zürich Temperature Yesterday

Maximum temperature yesterday: 36 °F (at 9:00 am)
Minimum temperature yesterday: 32 °F (at 12:00 am)
Average temperature yesterday: 35 °F

High & Low Weather Summary for the Past Weeks

 TemperatureHumidityPressure
High63 °F (Nov 22, 12:00 am)100% (Dec 1, 6:00 am)30.65 "Hg (Dec 1, 6:00 am)
Low25 °F (Nov 29, 8:00 am)33% (Nov 21, 11:00 pm)29.58 "Hg (Nov 21, 12:00 pm)
Average39 °F81%30.11 "Hg
* Reported Nov 19 8:00 pm — Dec 4 8:00 pm, Zürich, Weather by CustomWeather, © 2016

Note: Actual official high and low records may vary slightly from our data, if they occured in-between our weather recording intervals... More about our weather records

Advertising

Zürich Weather History for the Previous 24 Hours

Scroll right to see more
 ConditionsComfort  
Time TempWeatherWind HumidityBarometerVisibility
8:00 pm
Sun, Dec 4
31 °FChilly.7 mph91%30.36 "HgN/A
7:00 pm31 °FPassing clouds.7 mph90%30.35 "HgN/A
6:00 pm33 °FChilly.6 mph87%30.34 "HgN/A
5:00 pm34 °FChilly.6 mph82%30.32 "HgN/A
4:00 pm38 °FChilly.2 mph74%30.30 "HgN/A
3:00 pm39 °FChilly.3 mph70%30.29 "HgN/A
2:00 pm38 °FChilly.3 mph71%30.30 "HgN/A
1:00 pm37 °FPassing clouds.1 mph73%30.32 "HgN/A
12:00 pm35 °FChilly.1 mph78%30.33 "HgN/A
11:00 am33 °FChilly.2 mph82%30.35 "HgN/A
10:00 am31 °FChilly.2 mph84%30.35 "HgN/A
9:00 am31 °FChilly.2 mph87%30.34 "HgN/A
8:00 am31 °FChilly.2 mph87%30.32 "HgN/A
7:00 am31 °FChilly.1 mph87%30.32 "HgN/A
6:00 am31 °FChilly.3 mph85%30.31 "HgN/A
5:00 am31 °FChilly.3 mph85%30.30 "HgN/A
4:00 am31 °FChilly.5 mph81%30.29 "HgN/A
3:00 am32 °FChilly.5 mph79%30.29 "HgN/A
2:00 am32 °FChilly.6 mph78%30.29 "HgN/A
1:00 am32 °FChilly.6 mph77%30.28 "HgN/A
12:00 am32 °FChilly.6 mph75%30.27 "HgN/A
11:00 pm
Sat, Dec 3
33 °FChilly.6 mph75%30.26 "HgN/A
10:00 pm33 °FChilly.5 mph75%30.24 "HgN/A
9:00 pm34 °FChilly.7 mph74%30.23 "HgN/A
Weather by CustomWeather, © 2016

See weather overviewHow to use our weather pages